www.pogodaiklimat.ru

Погода и климат >> Архив погоды >> Россия >> Астраханская область >> Досанг


ПОГОДА в Досанге

  • Прогноз погоды в Досанге
  • Монитор погоды в Досанге

АРХИВ ПОГОДЫ в Досанге

Время (UTC), дата Ветер
(напр.,м/с)
 
Видим.   Явления Облачность Т
(С)
Тd
(С)
f
(%)
Тe
(С)
Тes
(С)
Комфортность P
(гПа)
Po
(гПа)
Тmin
(С)
Tmax
(С)
R
(мм)
R24
(мм)
S
(см)
09 13.09 СВ 2 20 км 5/4 600 м
[Sc diur, vesp Ac cast]
+26.3 +3.1 22 +25 +31 комфорт 1025.1 1027.2
12 13.09 СВ 4 20 км 4/4 600 м
[Sc diur, vesp]
+26.4 +0.2 18 +25 +27 комфорт 1023.4 1025.5
15 13.09 СВ 2 20 км 3/3 600 м
[Sc diur, vesp]
+23.1 -1.2 20 +22 +22 комфорт 1023.2 1025.3 +27.7
18 13.09 В 1 10 км ясно +15.8 -0.9 32 +17 +17 1023.7 1025.9
21 13.09 штиль 0 10 км ясно +10.9 +1.0 50 +11 +11 1023.1 1025.3
00 14.09 штиль 0 10 км ясно +9.1 +1.1 57 +9 +9 1022.7 1024.9
03 14.09 штиль 0 20 км ясно +7.8 -0.2 57 +7 +8 1022.9 1025.1 +6.6
06 14.09 ЮВ 1 20 км 3/0
[Ci sp]
+23.7 +5.0 30 +24 +30 комфорт 1023.0 1025.1
09 14.09 Ю 3 20 км 4/0
[Ci fib]
+26.5 +1.4 20 +25 +33 комфорт 1022.2 1024.3
12 14.09 Ю 3 20 км 10/0
[Cs]
+25.6 +0.8 20 +24 +27 комфорт 1020.9 1023.0
15 14.09 Ю 3 20 км 10/0
[Cs]
+21.8 +0.8 25 +21 +21 комфорт 1020.9 1022.4 +26.8
18 14.09 Ю 2 10 км 8/0
[Ci fib]
+18.0 +4.9 42 +19 +19 1020.4 1022.5
21 14.09 Ю 2 10 км ясно +14.4 +8.0 65 +14 +14 1019.9 1022.1
00 15.09 штиль 0 10 км ясно +11.9 +9.2 84 +11 +11 1019.3 1021.5
03 15.09 штиль 0 20 км 4/0
[Ci fib]
+7.4 +5.3 87 +7 +7 1019.5 1021.7 +7.2
06 15.09 Ю 3 20 км 3/0
[Ci fib]
+20.7 +13.1 62 +23 +28 комфорт 1020.1 1022.3
09 15.09 Ю 3 20 км 8/3 600 м
[Cu hum Ci fib]
+25.3 +5.3 28 +25 +30 комфорт 1018.5 1020.6
12 15.09 ЮЗ 2 20 км 10/4 600 м
[Cu hum Cs]
+26.4 +3.1 22 +25 +27 комфорт 1016.7 1018.8
15 15.09 Ю 1 20 км 10/6 300 м
[Sc diur, vesp Ci fib]
+23.1 +5.6 32 +23 +23 комфорт 1016.0 1018.1 +26.7
18 15.09 Ю 2 10 км ясно +19.3 +13.6 70 +21 +21 комфорт 1017.0 1019.1
21 15.09 С 2 10 км ясно +15.6 +7.3 58 +16 +16 1018.1 1020.2
00 16.09 СЗ 2 10 км ясно +11.9 +7.0 72 +11 +11 1018.8 1021.0
03 16.09 З 1 20 км 3/0
[Ci fib]
+9.7 +6.9 83 +9 +9 1019.6 1021.8 +9.7
06 16.09 ЮВ 1 20 км 6/0
[Ci fib]
+19.7 +5.4 39 +21 +28 комфорт 1019.4 1021.6 +9.6
09 16.09 ЮЗ 2 20 км ясно +22.5 0.0 22 +22 +32 комфорт 1017.3 1019.4
12 16.09 Ю 2 20 км ясно +24.0 +0.2 21 +23 +28 комфорт 1014.9 1017.0
15 16.09 Ю 1 20 км ясно +20.9 +0.9 26 +22 +22 комфорт 1013.6 1015.7 +24.3
18 16.09 Ю 2 10 км ясно +17.5 +2.3 36 +18 +18 1013.5 1015.6
21 16.09 Ю 2 10 км ясно +16.0 +12.5 80 +16 +16 1012.6 1014.7
00 17.09 Ю 2 20 км ясно +15.4 +13.0 86 +15 +15 1011.8 1013.9
03 17.09 ЮЗ 2 4000 м дымка ясно +15.0 +13.9 93 +15 +15 1011.5 1013.6 +12.5
06 17.09 Ю 4 20 км {туман} 3/1 300 м
[St Ci fib]
+19.6 +15.7 78 +22 +25 комфорт 1011.4 1013.5
09 17.09 ЮЗ 5-10
{10}
20 км 6/0
[Cc]
+27.6 +10.3 34 +28 +33 жарко 1009.4 1011.4
12 17.09 ЮЗ 4
{10}
20 км 9/0
[Ac cast Ci]
+28.5 +8.9 29 +28 +30 жарко 1007.8 1009.8
15 17.09 ЮЗ 1 20 км 10/0
[Ac cast Ci]
+25.2 +4.8 27 +25 +25 комфорт 1007.3 1009.4 +28.7
18 17.09 ЮЗ 3 10 км 10/0
[Ac cast Ci]
+22.5 +4.0 30 +23 +23 комфорт 1008.3 1010.4
21 17.09 ЮЗ 2 10 км 8/0
[Ci fib]
+18.2 +11.1 63 +19 +19 1007.9 1010.1
00 18.09 З 2 10 км 8/0
[Ac cast Ci fib]
+16.0 +10.6 70 +16 +16 1008.2 1010.4
03 18.09 ЮЗ 1 20 км 5/0
[Ac cast]
+14.1 +9.7 75 +14 +14 1009.7 1011.8 +14.1
06 18.09 З 3 20 км 1/0
[Ac trans]
+21.6 +10.1 48 +23 +28 комфорт 1011.2 1013.3
09 18.09 ЮЗ 4 20 км ясно +25.7 +9.5 36 +26 +33 жарко 1010.5 1012.6
12 18.09 ЮЗ 4
{11}
20 км 9/9 600 м
[Sc diur, vesp]
+26.1 +9.4 35 +27 +27 жарко 1009.5 1011.6
15 18.09 ЮЗ 2
{10}
20 км ясно +23.7 +10.4 43 +25 +25 комфорт 1008.9 1011.0 +27.1
18 18.09 Ю 3 10 км ясно +21.8 +9.8 46 +23 +23 комфорт 1008.2 1010.3
21 18.09 З 4
{12}
10 км слаб. ливневой дождь 10/8 600 м
[Cb cap Ac cuf]
+22.7 +10.6 46 +25 +25 комфорт 1009.8 1011.9
00 19.09 З 3
{11}
10 км {ливн. осадки} 10/10 600 м
[Sc diur, vesp]
+18.3 +8.1 51 +19 +19 1011.8 1013.9
03 19.09 З 5-10
{10}
20 км 8/8 600 м
[Sc]
+16.3 +7.0 54 +15 +15 1014.2 1016.4 +16.3 0.0
06 19.09 З 5-11
{12}
20 км 10/0
[Ac und]
+15.5 +1.2 38 +14 +15 1016.8 1019.0 +15.3
09 19.09 ЮЗ 3
{11}
20 км 8/0
[Ac trans]
+17.2 +0.7 33 +17 +22 1017.6 1019.7
12 19.09 З 4
{11}
20 км 4/0
[Ac trans Cc]
+21.6 -2.6 20 +21 +23 комфорт 1017.5 1019.6
15 19.09 З 1
{10}
20 км 8/0
[Cc]
+17.3 -0.9 29 +18 +18 1018.4 1020.5 +22.0
18 19.09 З 1 10 км ясно +10.6 +2.7 58 +11 +11 1019.6 1021.8
21 19.09 ЮЗ 1 10 км 10/0
[Ac und]
+11.5 +3.7 59 +12 +12 1020.1 1022.3
00 20.09 штиль 0 10 км 10/0
[Ac und]
+11.7 +4.6 62 +11 +11 1019.8 1022.0
03 20.09 Ю 1 20 км 10/0
[Ac As]
+12.4 +5.1 61 +13 +13 1019.8 1022.0 +10.4
06 20.09 З 1 20 км 10/0
[Ac As]
+14.4 +5.7 56 +15 +17 1020.5 1022.6

 

Местоположение метеостанции Досанг (Астраханская область, Россия): широта 46.92 долгота 47.93 высота над уровнем моря -19 м.

В архиве по умолчанию представлена погода в Досанге за последнюю неделю. Архивные данные за месяц целиком и за предыдущие месяцы, начиная с января 2011 года, Вы можете получить, выбрав интересующий диапазон дат из раскрывающегося списка и нажав кнопку "Ввод!".


*Определитесь, кто Вы:
робот инопланетянин человек

Внимание! Время в таблицах - всемирное. Для получения местного времени необходимо прибавить поправку, которая равна 4 ч.

Смотрите также архив погоды в соседних городах и на ближайших метеорологических станциях:

Погода в Астрахани (Астраханская область, Россия) (71 км)
Погода в Харабали (Астраханская область, Россия) (74 км)
Погода в Зеленге (Астраханская область, Россия) (98 км)
Погода в Ганюшкино (Атырауская область, Казахстан) (108 км)
Погода в Юсте (Калмыкия, Россия) (124 км)
Погода в Жанауштогане (Атырауская область, Казахстан) (127 км)
Погода в Лимане (Астраханская область, Россия) (136 км)
Погода в Утте (Калмыкия, Россия) (158 км)
Погода в Исатай (Атырауская область, Казахстан) (163 км)
Погода в Верхнем Баскунчаке (Астраханская область, Россия) (170 км)

Пояснения к столбцам:

Ветер - указаны скорость ветра в м/с - средняя за 10 мин, порывы в срок и между сроками (в фигурных скобках) и направление, откуда дует ветер: С - северный, СВ - северо-восточный, В - восточный, ЮВ - юго-восточный, Ю - южный, ЮЗ - юго-западный, З - западный, СЗ - северо-западный.
Видимость - горизонтальная дальность видимости в метрах или километрах. При видимости от 1 до 10 км при отсутствии осадков обычно наблюдается дымка, при ухудшении видимости до 1 км и менее - туман. В сухую погоду видимость может ухудшаться дымом, пылью или мглою.
Явления - указаны атмосферные явления, наблюдавшиеся в срок или в последний час перед сроком; фигурными скобками обозначены явления, наблюдавшиеся между сроками (за 1-3 часа до срока); квадратными скобками обозначены град или гололедные отложения с указанием их диаметра в мм.
Облачность - указаны через наклонную черту общая и нижняя облачность в баллах и высота нижней границы облаков в метрах; квадратными скобками обозначены формы облаков: Ci - перистые, Cs - перисто-слоистые, Cc - перисто-кучевые, Ac - высококучевые, As - высокослоистые, Sc - слоисто-кучевые, Ns - слоисто-дождевые, Cu - кучевые, Cb - кучево-дождевые. Подробнее классификацию облаков см. в Атласе облаков (PDF).
T - Температура воздуха - температура, измеренная на высоте 2 м над землей.
Td - Температура точки росы - температура, при понижении до которой содержащийся в воздухе водяной пар достигнет насыщения.
f - Относительная влажность воздуха - влажноcть воздуха, измеренная на высоте 2 м над землей.
Te - Эффективная температура - температура, которую ощущает одетый по сезону человек в тени. Характеристика душности погоды. При расчете учитывается влияние влажности воздуха и скорости ветра на теплоощущения человека.
Tes - Эффективная температура на солнце - температура, которую ощущает человек, с поправкой на солнечный нагрев. Характеристика знойности погоды. Зависит от высоты солнца над горизонтом, облачности и скорости ветра. Ночью, в пасмурную погоду, а также при ветре 12 м/с и более поправка равна нулю.
P - Атмосферное давление - приведенное к уровню моря атмосферное давление.
Po - Атмосферное давление - измеренное на уровне метеостанции атмосферное давление.
Tmin - Минимальная температура - минимум температуры воздуха на высоте 2 м над землей.
Tmax - Максимальная температура - максимум температуры воздуха на высоте 2 м над землей.
R - Количество осадков - Количество выпавших осадков за период времени, мм. При наведении курсора мыши на число - период времени, за который выпало указанное количество осадков.
R24 - Количество осадков - Количество выпавших осадков за 24 часа, мм.
S - Снежный покров - Высота снежного покрова, см. При наведении курсора мыши на число - состояние снежного покрова и степень покрытия местности в баллах.